Theta_e
307 306 307 308 308 309 310 309 310 312 318 322 322 322 319 319 318 322 327 325 327 325 325 333 333 337 339 343 345 347 347 342 342 344 346 345 345 343 342 346 347 348 348 349 348
304 305 305 307 308 307 308 310 310 310 319 322 322 322 320 318 320 326 325 327 323 321 329 330 333 334 339 342 340 339 338 340 339 341 347 346 346 347 348 349 348 346 348 348 348
303 304 304 305 307 307 306 309 310 310 318 319 320 320 319 316 329 326 324 325 324 320 326 330 332 336 340 339 337 337 336 337 341 342 347 345 351 351 355 351 349 349 351 349 348
303 303 304 304 305 307 306 306 309 310 317 316 317 318 316 323 330 328 326 325 323 321 328 332 331 336 340 336 335 337 340 339 338 343 342 341 346 346 347 350 350 348 348 348 349
303 304 304 304 305 306 306 306 307 312 316 311 310 314 319 327 327 327 322 323 321 323 328 332 330 338 338 334 333 339 340 339 341 342 340 343 347 353 345 350 347 346 348 349 348
303 304 304 304 305 305 306 306 307 314 315 312 310 311 323 328 326 326 323 323 324 326 329 330 331 337 336 334 334 339 340 339 340 338 341 344 348 349 352 349 348 348 349 348 348
303 303 304 304 304 305 306 306 307 318 314 312 309 318 328 325 327 328 326 322 324 327 329 329 332 336 334 333 338 339 339 339 338 341 342 340 349 353 351 351 351 351 350 349 348
302 303 303 303 304 305 306 307 307 320 315 312 311 324 331 328 327 329 327 324 323 326 328 329 335 334 333 334 336 338 340 340 342 343 339 343 353 353 351 353 354 353 352 352 352
302 303 303 303 304 305 306 308 310 321 316 315 324 329 335 325 326 330 327 324 324 326 327 330 335 332 333 333 340 338 341 342 344 342 341 343 350 352 350 351 352 353 353 353 353
302 303 303 304 304 305 306 309 322 322 328 325 327 333 335 334 326 329 328 324 327 327 328 333 334 332 332 334 340 339 342 344 345 343 344 345 347 349 347 349 350 351 351 352 352
302 303 303 304 305 305 306 316 334 338 333 335 331 328 331 332 329 327 327 325 326 327 331 334 332 331 331 334 336 339 339 343 342 345 347 345 345 348 345 347 350 351 350 350 348
302 302 303 304 305 306 307 320 328 328 331 330 332 332 330 328 328 326 326 326 326 328 330 332 331 331 332 334 334 335 336 337 340 341 343 348 348 347 345 345 348 350 350 349 349
303 303 303 304 306 311 319 325 325 325 331 330 329 329 331 330 328 326 326 326 326 329 331 331 331 331 332 332 332 334 333 334 339 340 339 341 349 348 346 345 345 346 348 348 348
303 303 303 303 312 314 319 324 327 326 331 328 328 329 329 329 329 327 327 327 327 329 330 330 331 332 332 331 331 331 331 332 333 337 339 340 344 351 348 346 346 345 346 347 347
303 303 304 303 310 315 318 319 322 326 332 329 328 329 329 330 328 327 327 326 328 329 329 329 330 331 331 332 331 331 332 331 332 332 333 336 341 350 349 348 345 345 345 345 345
302 303 304 309 313 316 318 320 322 333 330 329 329 328 329 329 328 328 327 327 328 328 329 329 330 329 329 330 330 331 334 333 332 332 336 335 341 348 352 355 345 343 344 345 345
303 302 304 307 312 314 314 320 329 334 328 328 328 328 329 329 327 328 327 326 327 329 328 328 329 331 331 330 331 332 335 337 337 337 337 335 338 346 345 345 348 349 349 345 346
303 303 305 308 308 312 317 322 331 332 331 329 329 329 328 329 326 327 327 326 327 328 328 328 329 331 331 331 332 332 334 336 343 339 338 338 341 345 338 343 350 349 350 345 345
304 312 313 319 317 315 319 326 329 329 331 328 330 328 328 329 326 327 327 326 328 328 331 330 332 332 331 332 333 333 335 334 335 334 334 336 337 336 336 336 334 338 336 346 345
309 313 315 316 320 318 319 323 326 326 328 331 331 330 328 327 326 328 327 327 328 329 331 332 335 332 331 332 332 333 334 333 334 339 339 335 335 337 343 337 336 334 335 339 347
314 322 319 317 322 319 319 323 325 325 328 331 333 333 328 328 327 328 328 328 328 330 331 332 335 333 332 331 331 332 334 333 333 333 336 337 338 341 344 339 335 335 336 336 339
314 318 320 322 325 322 320 323 323 325 329 330 330 331 333 333 328 328 329 330 329 330 330 332 332 335 333 332 332 332 333 335 337 340 339 340 336 336 336 334 334 335 335 337 340
316 319 320 323 323 322 322 324 325 325 328 330 329 330 331 333 332 328 328 330 331 331 333 332 333 334 334 333 332 332 333 332 333 335 343 339 338 340 334 335 336 336 337 346 348
316 320 319 323 323 323 323 326 326 325 327 330 329 329 329 332 333 331 329 329 330 331 337 335 330 335 331 335 334 334 331 331 332 338 338 337 339 338 338 339 344 340 341 342 351
319 320 324 327 322 323 324 327 330 326 327 330 330 329 331 333 332 331 330 329 329 337 331 331 339 331 330 330 331 332 332 331 332 335 337 338 340 341 342 340 338 337 337 339 346
319 317 319 321 325 330 323 328 332 330 328 329 329 329 329 332 337 341 339 337 332 330 330 330 335 331 331 331 330 330 330 333 332 331 331 333 338 339 340 340 337 334 335 339 341
314 311 316 320 323 326 328 329 330 330 329 329 330 332 332 335 337 337 335 335 336 336 334 337 333 338 335 332 333 334 332 331 332 334 333 337 340 341 340 336 334 335 336 340 341
Wind_Speed
26 28 27 27 28 29 28 30 32 33 29 24 22 21 18 16 15 11 11 13 15 17 9 15 14 17 18 18 23 32 7 5 9 12 19 20 16 18 17 14 13 11 20 24 24
26 27 29 28 28 29 30 31 32 35 30 25 22 18 14 13 11 21 24 21 13 10 10 17 14 13 13 19 7 6 3 11 10 12 22 25 2 16 13 12 12 18 25 27 23
27 28 29 29 28 30 32 31 31 35 29 22 17 13 9 7 10 23 23 26 18 15 17 19 16 16 17 16 5 4 12 6 16 11 24 28 23 11 24 12 16 23 24 22 22
27 29 30 30 30 30 33 32 30 33 24 17 12 8 4 2 5 6 13 26 19 15 15 19 13 17 16 8 1 6 13 13 8 21 14 18 21 17 24 14 18 20 22 20 18
27 29 31 30 30 31 33 33 32 29 18 15 9 5 1 9 19 9 7 21 17 15 19 16 14 18 17 7 3 9 14 9 12 16 17 20 16 17 20 14 19 20 19 18 16
28 29 31 31 31 32 33 34 33 24 15 14 7 4 5 15 10 8 12 18 17 19 20 18 16 19 15 4 8 12 11 10 15 12 12 14 15 16 15 18 19 18 16 15 15
29 30 31 32 32 33 32 35 33 18 11 10 3 1 12 17 7 11 14 22 22 22 18 20 23 14 13 8 10 9 10 9 11 16 12 18 15 14 16 15 17 16 15 14 13
30 31 31 32 32 33 33 33 31 16 8 7 2 5 8 16 11 12 16 20 22 21 23 17 16 15 17 4 5 13 14 12 17 19 3 8 11 13 15 15 15 15 15 14 13
31 32 32 32 32 33 35 34 25 12 6 7 5 8 16 11 16 14 20 22 24 21 22 11 10 16 16 12 11 13 13 14 15 20 10 4 11 16 17 15 13 14 13 13 11
33 33 33 33 32 32 36 32 16 6 4 6 14 10 13 14 18 19 23 24 19 16 15 9 8 15 18 12 15 17 17 20 15 14 14 14 10 15 17 17 14 13 12 13 14
33 33 34 34 31 32 37 11 5 5 9 12 8 12 5 20 20 18 23 25 19 19 19 17 15 17 19 18 17 15 13 17 16 18 25 13 16 18 18 17 16 16 14 15 15
34 34 35 35 31 33 18 7 18 15 16 18 23 23 21 18 12 19 26 19 18 20 20 16 20 21 18 20 20 19 11 12 13 16 11 16 20 18 17 17 18 17 16 16 16
35 35 35 37 34 21 12 21 21 18 14 25 22 23 19 11 15 20 20 22 21 23 22 20 22 22 18 16 16 16 11 10 15 12 4 12 18 13 15 15 17 18 18 17 17
35 35 36 38 16 18 16 11 8 16 10 19 22 25 23 17 17 24 26 21 17 23 22 23 22 21 18 17 17 18 12 18 15 14 11 15 13 18 23 18 16 18 19 19 19
36 35 36 29 20 11 18 20 15 15 7 9 23 17 20 21 17 20 29 22 20 19 18 22 21 23 21 19 16 12 16 18 13 11 14 14 9 15 16 16 16 19 20 20 21
36 36 38 14 11 23 21 20 16 7 9 5 14 16 23 20 22 22 22 24 21 19 21 22 17 19 20 20 16 18 10 17 9 11 14 17 12 6 9 17 17 9 18 20 21
39 36 34 18 9 10 16 10 7 10 16 13 20 21 22 17 24 23 25 25 22 17 21 23 25 15 14 18 20 18 11 8 9 11 13 15 15 10 19 22 21 20 31 21 19
43 35 29 24 22 15 7 8 15 15 24 21 17 21 22 22 24 25 25 22 27 23 16 16 18 20 16 21 15 13 16 9 13 12 13 13 9 16 10 15 27 25 27 22 21
39 19 20 17 17 14 7 12 16 22 21 24 19 13 21 22 21 21 24 24 25 27 21 18 21 21 22 17 16 15 17 18 18 13 6 7 9 11 9 9 5 9 11 18 21
20 15 21 18 20 13 9 19 21 26 29 17 16 15 20 23 26 25 25 24 25 25 26 18 15 21 17 16 15 16 17 13 12 9 10 8 9 10 15 10 11 9 6 7 17
8 6 7 21 15 8 13 21 23 29 23 19 14 16 14 18 25 21 21 22 27 27 26 25 18 19 21 15 21 15 11 9 12 10 9 9 4 13 11 8 7 7 8 4 9
8 6 15 18 9 10 15 23 26 25 26 15 14 19 18 19 22 26 26 25 28 28 27 25 8 13 27 20 23 21 16 10 9 9 8 9 5 13 11 10 9 7 3 6 2
5 10 15 18 13 13 19 24 27 24 22 19 16 21 20 21 18 24 26 24 25 27 26 18 13 10 14 19 20 18 16 20 17 13 13 11 5 7 7 7 6 5 5 6 9
5 5 10 11 14 20 19 23 23 22 25 20 13 17 22 21 19 19 23 22 26 26 7 15 19 13 14 16 17 22 22 22 19 12 14 12 6 11 11 9 9 6 5 7 9
4 6 8 7 13 18 21 20 20 21 20 18 15 22 13 14 15 17 18 23 23 12 16 14 11 16 18 20 19 17 23 21 20 19 17 11 8 3 3 8 2 2 3 6 5
6 6 12 14 19 15 13 22 20 18 18 21 18 20 17 18 9 10 16 12 22 16 12 11 8 11 18 18 18 21 23 23 24 23 23 20 16 21 14 11 7 1 5 7 5
14 13 7 9 16 11 12 11 18 22 15 9 6 8 13 16 13 6 10 11 6 11 15 14 13 13 16 17 20 20 21 21 18 17 15 13 5 12 11 4 2 2 4 6 7
Wind_Direction
355 353 351 347 345 342 342 340 337 336 331 325 314 305 306 311 301 288 253 240 226 245 253 265 249 263 268 253 252 205 273 88 53 97 131 123 119 86 99 128 150 123 141 141 146
356 352 348 346 341 340 339 337 336 336 329 320 309 303 305 313 292 262 249 256 240 234 229 246 253 243 250 248 243 201 141 129 148 158 82 356 98 114 136 130 127 119 125 140 151
354 352 348 344 340 338 337 336 335 335 330 327 313 302 303 320 276 257 239 225 232 233 234 251 265 276 253 255 238 336 87 83 104 83 132 174 79 96 2 138 126 133 140 150 151
350 348 346 343 340 336 335 336 333 334 331 340 332 306 281 284 262 34 175 205 213 225 232 254 257 266 250 251 258 104 66 74 85 61 8 74 83 107 141 232 128 141 142 150 156
345 344 343 341 339 335 334 334 333 331 326 333 329 296 239 225 252 252 184 187 197 200 219 235 233 247 250 201 198 117 88 87 105 150 85 70 67 120 178 181 130 138 147 152 158
341 340 341 340 337 335 332 331 332 328 318 325 319 271 258 250 224 158 174 184 195 200 216 234 233 242 278 130 241 101 137 167 109 90 117 117 107 111 109 125 130 144 149 157 162
339 337 337 338 335 332 330 330 330 320 311 313 303 217 258 241 217 177 185 193 198 201 217 227 243 272 255 183 126 129 135 130 146 113 56 111 97 113 127 136 147 147 156 159 156
339 336 334 335 332 328 327 326 327 313 297 284 190 245 262 239 218 217 199 195 209 209 226 219 251 270 253 143 191 169 170 177 136 110 77 65 117 134 150 152 149 164 158 154 148
339 335 332 332 330 326 322 323 314 299 262 262 271 221 258 152 207 219 205 191 204 207 225 264 217 252 246 207 192 208 197 154 125 125 154 154 162 158 165 167 169 170 152 150 155
340 334 331 328 329 326 321 321 306 259 274 243 263 266 248 223 198 202 196 192 203 199 219 214 213 233 240 184 210 202 216 163 160 180 158 169 163 168 175 164 170 175 164 163 166
340 336 330 326 326 324 323 322 227 187 215 246 213 231 204 214 174 189 189 190 197 207 206 204 213 218 216 203 227 212 221 157 244 155 163 174 172 176 185 162 175 172 177 176 175
338 338 331 324 321 315 304 256 286 328 301 276 253 246 271 176 169 186 189 192 197 203 205 195 216 221 221 213 233 237 205 204 203 154 179 154 183 190 189 173 174 177 182 185 171
339 338 333 323 319 305 242 266 292 298 284 280 256 231 228 190 193 189 196 202 196 207 202 207 212 232 232 215 229 251 238 222 199 150 178 199 155 137 259 195 174 181 183 184 174
337 337 336 329 311 325 280 275 327 300 281 262 221 225 205 210 217 187 191 209 197 210 206 226 212 221 234 231 206 232 217 261 229 176 212 180 230 168 218 188 195 190 183 187 180
335 334 331 331 295 292 294 327 327 290 274 183 192 181 188 199 204 191 186 209 211 211 219 214 232 211 224 234 231 240 227 231 238 240 235 231 231 159 185 188 198 201 191 194 181
330 329 327 338 254 263 296 303 283 240 244 187 151 186 188 193 216 187 188 215 233 216 221 237 218 224 210 227 221 222 255 205 224 253 252 228 216 159 180 211 215 253 215 196 188
329 318 308 273 245 326 331 300 230 238 242 273 160 187 197 188 206 196 188 204 217 218 218 221 232 200 209 204 214 213 206 208 226 231 242 238 223 237 176 216 206 176 229 196 191
326 314 292 256 268 281 258 258 238 237 243 266 174 184 209 190 206 193 190 202 217 221 214 210 222 198 202 215 201 193 221 214 207 232 230 209 184 222 194 175 200 207 203 194 190
325 312 268 252 234 228 232 231 224 242 250 241 258 202 202 201 206 189 195 206 208 223 227 198 228 188 208 224 189 185 234 241 258 265 255 181 198 222 160 159 157 179 214 193 186
321 297 259 231 182 191 221 241 249 245 259 298 280 234 203 201 208 190 195 206 216 216 236 196 223 187 209 206 224 219 207 234 249 261 281 237 234 215 157 158 173 182 213 233 197
289 270 280 170 163 210 222 230 240 258 273 278 270 283 243 205 208 201 202 211 214 213 228 237 207 191 193 192 216 208 230 217 247 229 253 256 82 100 136 155 147 166 175 192 231
298 256 164 169 206 226 228 235 261 250 239 246 254 276 292 287 223 220 202 203 201 217 219 236 244 250 195 195 206 226 197 214 245 254 281 303 313 132 141 152 169 123 170 151 206
285 275 248 217 236 232 230 241 257 252 255 262 226 250 266 270 276 230 225 202 205 212 217 220 237 245 236 199 197 222 217 214 224 241 259 255 186 121 152 143 121 122 65 163 165
280 267 218 212 242 254 243 235 239 246 246 271 270 268 247 259 271 268 212 230 211 204 196 216 215 230 244 231 196 201 216 233 252 235 238 233 202 179 199 169 145 189 190 186 183
247 272 4 271 223 230 255 264 262 234 228 256 266 276 261 258 256 260 252 215 220 188 191 217 226 238 233 259 267 239 210 219 238 263 270 249 230 212 181 200 68 54 296 269 245
307 344 337 301 290 283 242 247 266 254 229 223 229 264 249 257 301 345 347 286 215 159 174 193 212 234 253 253 243 252 264 208 214 225 243 253 245 197 184 155 169 316 312 294 244
356 320 302 291 286 277 253 255 253 277 228 234 195 291 283 346 347 326 312 315 347 177 191 192 205 223 240 242 255 257 247 251 238 227 235 259 283 107 136 133 42 13 302 293 301